Location: ???????
(55.8719°N, 38.1523°E)
Time: 20:42:51
(UTC+00:00)

Okean 1 - Pass Details

Date: 14 April 2024
Orbit: 507 x 530 km, 82.5° (Epoch: 17 May)

Event Time Altitude Azimuth Distance (km) Brightness Sun altitude
Exits shadow 00:54:10 16° 207° (SSW) 1,402 4.8 -11.9°
Maximum altitude 00:57:06 61° 285° (WNW) 588 3.3 -11.6°
Drops below altitude 10° 01:00:53 10° 7° (N) 1,742 6.5 -11.2°
Sets 01:03:03 0° 11° (N) 2,631 7.6 -10.9°
